Вернуться в каталог

SOLRAD 3/INJUN 1

АктивенНаукаLEO
NORAD 117·PAYLOAD·🇺🇸 United States

Запущен Jun 29, 1961 с Cape Canaveral Space Force Station

Loading…

Ближайшие Пролёты (ближайшие 24 часа)

TLE

СвежийSource: Space-Track

Эпоха: Sep 10, 2026, 18:31 UTC

1 00117U 61015B   26253.77182626 -.00000036  00000-0  32367-4 0  9994
2 00117  66.8124 156.4896 0083526 240.4073 118.8664 13.90198083305959

Отслеживайте SOLRAD 3/INJUN 1 в реальном времени с AllMySat

Download on the App Store